Regional Weather Roundup
Issued by NWS Binghamton, NY

Home | Current Version | Previous Version | Text Only | Print | Product List | Glossary On
Versions: 1 2 3 4 5 6 7 8 9 10 11 12 13 14 15 16 17 18 19 20 21 22 23 24 25 26 27 28 29 30 31 32 33 34 35 36 37 38 39 40 41 42 43 44 45 46 47 48 49
000
ASUS41 KBGM 230710
RWRBGM
RWRBGM
BINGHAMTON REGIONAL WEATHER ROUNDUP
NATIONAL WEATHER SERVICE BINGHAMTON NY
300 AM EDT SAT MAY 23 2015

Note: "fair" indicates few or no clouds below 12,000 feet with no
significant weather and/or obstructions to visibility.

* = Station(s) that does not report precipitation, such as rain,
snow, etc, also no thunder or fog.

!NYZ009-015>018-022>025-036-037-044>046-055>057-062-230800
...CENTRAL NEW YORK...

CITY           SKY/WX    TMP DP  RH WIND       PRES   REMARKS
BINGHAMTON     CLEAR     36  27  69 NW6       30.26R WCI  31
CORTLAND       FAIR      36  30  80 CALM      30.29R
DANSVILLE      CLEAR     33  30  88 S3        30.35R
ELMIRA         CLEAR     38  28  67 S6        30.31R WCI  33
ITHACA         CLEAR     32  30  92 CALM      30.30R
MONTICELLO     CLEAR     39  25  56 NW6       30.23R WCI  35
NORWICH        CLEAR     34  28  80 CALM      30.28R
ONEONTA        CLEAR     36  27  69 N3        30.23R
PENN YAN       CLEAR     39  28  64 CALM      30.32R
ROME           CLEAR     36  25  64 NW5       30.30R WCI  32
SIDNEY         CLEAR     37  32  81 SW3       30.27R
SYRACUSE       CLEAR     39  29  67 W7        30.31R WCI  34
$$

!PAZ038>040-043-044-047-048-072-230800
...NORTHEAST PENNSYLVANIA...

CITY           SKY/WX    TMP DP  RH WIND       PRES   REMARKS
HAZLETON       CLEAR     43  30  61 NW6       30.31R
SCRANTON       CLEAR     44  26  49 W7        30.28R
$$
&&
KEY
WCI = WIND CHILL INDEX
VSB = VISIBILITY
HX  = HEAT INDEX
$$


USA.gov is the U.S. government's official web portal to all federal, state and local government web resources and services.